TimeAKDT,TemperatureF,Dew PointF,Humidity,Sea Level PressureIn,VisibilityMPH,Wind Direction,Wind SpeedMPH,Gust SpeedMPH,PrecipitationIn,Events,Conditions,WindDirDegrees,DateUTC
12:53 AM,48.0,45.0,89,30.22,10.0,Calm,Calm,-,N/A,,Overcast,0,2012-10-08 08:53:00
1:53 AM,46.9,46.0,97,30.22,10.0,Calm,Calm,-,N/A,,Overcast,0,2012-10-08 09:53:00
2:53 AM,46.9,46.0,97,30.21,10.0,Calm,Calm,-,N/A,,Overcast,0,2012-10-08 10:53:00
3:53 AM,46.9,45.0,93,30.21,10.0,Calm,Calm,-,N/A,,Overcast,0,2012-10-08 11:53:00
4:53 AM,46.9,44.1,90,30.19,10.0,Calm,Calm,-,N/A,,Overcast,0,2012-10-08 12:53:00
5:12 AM,46.4,44.6,93,30.20,10.0,Calm,Calm,-,N/A,,Overcast,0,2012-10-08 13:12:00
5:53 AM,46.0,44.1,93,30.19,10.0,Calm,Calm,-,N/A,,Overcast,0,2012-10-08 13:53:00
6:53 AM,46.0,43.0,89,30.20,10.0,Calm,Calm,-,N/A,,Overcast,0,2012-10-08 14:53:00
7:53 AM,45.0,42.1,90,30.20,10.0,Calm,Calm,-,N/A,,Overcast,0,2012-10-08 15:53:00
8:53 AM,45.0,42.1,90,30.19,10.0,Calm,Calm,-,N/A,,Overcast,0,2012-10-08 16:53:00
9:53 AM,45.0,42.1,90,30.19,9.0,NE,4.6,-,N/A,,Overcast,40,2012-10-08 17:53:00
10:53 AM,45.0,42.1,90,30.19,10.0,Calm,Calm,-,N/A,,Overcast,0,2012-10-08 18:53:00
11:53 AM,48.0,42.1,80,30.18,10.0,East,3.5,-,N/A,,Mostly Cloudy,80,2012-10-08 19:53:00
12:10 PM,48.2,42.8,82,30.17,10.0,Calm,Calm,-,N/A,,Scattered Clouds,0,2012-10-08 20:10:00
12:53 PM,46.9,42.1,83,30.17,10.0,SSW,3.5,-,N/A,,Clear,210,2012-10-08 20:53:00
1:53 PM,46.9,42.1,83,30.14,10.0,SW,5.8,-,N/A,,Partly Cloudy,230,2012-10-08 21:53:00
2:53 PM,46.9,43.0,86,30.12,10.0,SW,5.8,-,N/A,,Clear,220,2012-10-08 22:53:00
3:53 PM,46.9,44.1,90,30.11,10.0,SW,10.4,-,N/A,,Clear,220,2012-10-08 23:53:00
4:53 PM,46.9,44.1,90,30.11,10.0,SW,10.4,-,N/A,,Clear,220,2012-10-09 00:53:00
5:30 PM,46.4,42.8,87,30.11,10.0,SW,10.4,-,N/A,,Mostly Cloudy,220,2012-10-09 01:30:00
5:45 PM,46.4,42.8,87,30.12,10.0,SW,9.2,-,N/A,,Overcast,220,2012-10-09 01:45:00
5:53 PM,46.9,43.0,86,30.11,10.0,SSW,8.1,-,N/A,,Overcast,210,2012-10-09 01:53:00
6:53 PM,46.9,43.0,86,30.11,10.0,SSW,6.9,-,N/A,,Overcast,200,2012-10-09 02:53:00
7:09 PM,46.4,42.8,87,30.11,10.0,SSW,8.1,-,N/A,,Overcast,210,2012-10-09 03:09:00
7:53 PM,46.9,43.0,86,30.12,10.0,SSW,6.9,-,N/A,,Overcast,200,2012-10-09 03:53:00
8:53 PM,46.0,43.0,89,30.12,10.0,SSW,6.9,-,N/A,,Overcast,210,2012-10-09 04:53:00
9:53 PM,46.0,43.0,89,30.13,10.0,Calm,Calm,-,N/A,,Overcast,0,2012-10-09 05:53:00
10:53 PM,45.0,44.1,97,30.12,7.0,Calm,Calm,-,N/A,,Overcast,0,2012-10-09 06:53:00